Cloud_Cover
100 100 100 100 100 100 100 100 100 100 24 17 19 25 1 1 2 0 0 0 0 0 45 5 0 0 0 5 4 0 0 5 0 0 0 0 0 5 3 0 0 0 2 0 0
100 100 100 100 100 100 100 100 100 100 90 18 18 20 0 11 0 0 0 0 0 0 1 0 0 0 0 1 4 0 0 4 0 0 0 0 0 0 1 0 0 0 0 0 0
100 100 100 100 100 100 100 100 100 100 100 18 18 8 0 8 0 0 0 0 0 0 0 0 0 0 2 5 0 0 0 0 0 0 0 0 0 0 0 4 2 0 0 1 0
100 100 100 100 100 100 100 100 100 100 82 21 8 0 0 0 0 0 0 0 0 0 0 0 0 0 0 0 0 0 0 0 0 0 0 0 0 0 0 0 0 3 2 0 0
100 100 100 100 100 100 100 100 100 100 46 20 2 0 0 0 0 0 0 0 0 0 0 0 0 0 0 0 0 0 0 0 0 0 0 0 0 0 0 0 0 5 1 2 0
100 100 100 100 100 100 100 100 100 92 23 19 0 3 0 0 0 0 0 0 0 0 0 0 0 0 0 0 0 0 0 0 0 0 0 0 0 0 0 0 0 0 4 0 4
100 100 100 100 100 100 100 100 98 28 22 1 33 0 0 0 0 0 0 0 0 0 0 0 0 0 0 0 0 0 3 0 0 0 0 0 0 0 0 0 0 0 0 0 0
100 100 100 100 100 100 100 87 26 24 2 0 10 0 0 0 0 0 0 0 0 0 0 0 0 0 0 0 2 4 1 0 0 0 0 0 0 0 0 0 0 0 0 0 0
100 100 100 100 100 100 89 0 10 0 0 0 0 0 0 0 0 0 0 0 0 0 0 0 0 0 0 4 0 2 0 0 1 0 0 0 0 0 0 0 0 0 0 0 0
100 100 100 100 100 100 1 6 0 0 0 0 0 0 0 0 0 0 0 0 0 0 0 0 0 0 0 0 0 0 0 0 0 0 0 0 0 0 0 0 0 0 0 0 0
100 100 100 100 100 91 3 0 0 0 0 0 0 0 0 0 0 0 0 0 0 0 0 0 0 0 0 0 0 0 0 0 0 0 0 0 0 0 0 0 2 0 0 0 0
100 100 100 100 100 71 7 0 0 0 0 0 0 0 0 0 0 0 0 0 0 0 0 0 0 0 0 0 0 0 0 0 0 0 0 1 0 0 0 4 0 0 0 0 0
100 100 100 100 100 42 0 0 0 0 0 0 0 0 0 0 0 0 0 0 0 0 0 0 0 0 0 0 0 0 0 0 0 0 5 5 4 0 0 2 3 5 11 7 45
100 100 100 100 17 0 0 0 0 0 0 0 0 0 0 0 0 0 0 0 0 0 0 0 0 0 0 0 0 0 0 0 0 2 18 5 0 0 0 2 0 42 100 100 100
100 100 100 100 23 0 0 0 0 0 0 0 0 0 0 0 0 0 0 0 0 0 0 0 0 0 0 0 0 0 0 0 1 0 5 2 2 5 0 0 46 100 100 100 100
100 100 100 55 86 3 0 0 0 0 0 0 0 0 0 0 0 0 0 0 0 0 0 0 0 0 0 0 0 0 0 0 0 0 5 24 4 2 4 4 96 100 100 100 100
100 100 92 0 0 0 0 0 0 0 0 0 0 0 0 0 0 0 0 0 0 0 0 0 0 0 0 0 0 0 0 3 0 0 2 2 0 0 77 5 99 100 100 100 100
100 96 11 0 0 0 0 0 0 0 0 0 0 0 0 0 0 0 0 0 0 0 0 0 0 0 0 0 0 0 0 1 0 0 0 0 0 75 100 4 81 100 100 100 100
94 42 1 0 0 0 0 0 0 0 0 0 0 0 0 0 0 0 0 0 0 0 0 2 5 0 0 0 0 0 0 0 0 0 0 1 0 5 5 58 10 100 91 100 97
8 0 0 0 0 0 0 0 0 0 0 0 0 0 0 0 0 0 0 0 0 0 0 4 41 0 0 0 0 0 0 0 0 0 0 0 0 1 13 5 5 33 100 100 47
3 0 0 0 0 0 0 0 0 0 0 0 0 0 0 0 0 0 0 0 0 0 0 5 5 4 3 5 23 4 0 0 0 3 2 0 0 5 56 73 28 21 100 100 6
0 0 2 0 3 0 0 0 0 0 3 2 0 0 0 1 0 0 4 2 3 5 3 0 0 1 0 4 1 5 1 0 0 4 2 0 0 0 0 4 5 5 12 84 100
4 6 3 5 0 0 0 0 0 0 3 0 0 0 5 2 3 5 8 4 0 0 0 0 1 5 4 0 0 0 0 0 0 0 0 0 0 0 0 0 0 1 3 1 32
32 5 2 0 0 0 0 4 5 5 5 6 4 6 0 6 5 3 3 1 0 0 1 72 5 5 0 0 1 0 0 0 0 0 0 0 0 0 0 0 0 0 0 0 3
4 0 0 0 1 5 5 8 5 48 12 7 67 36 30 5 5 22 77 64 1 83 77 28 7 3 0 0 0 0 0 0 0 0 0 0 0 0 0 0 0 0 0 0 0
5 5 0 4 5 5 54 94 10 5 5 57 7 24 12 54 20 96 40 91 97 89 100 96 97 2 0 0 0 0 0 0 0 0 0 0 0 0 0 0 0 0 0 0 0
4 0 5 21 25 4 94 100 100 100 77 5 29 5 1 29 100 100 32 62 99 86 96 95 28 16 0 0 0 0 0 0 0 0 0 0 0 0 0 0 0 0 0 0 0